Wind_Speed
38 38 42 44 46 52 45 30 12 7 8 3 6 8 10 13 22 18 16 18 7 22 19 22 23 20 20 18 22 30 32 35 37 43 52 52 42 44 52 58 54 54 56 60
34 35 41 42 44 49 50 31 17 8 7 6 9 10 10 17 20 23 22 25 23 17 11 14 15 19 26 25 27 25 23 26 33 41 41 45 46 46 45 52 57 58 60 60
32 35 40 41 43 49 48 28 29 10 7 7 10 10 10 14 23 24 20 22 24 21 21 23 25 23 23 22 25 26 25 24 25 26 30 39 43 43 43 46 49 49 54 55
31 35 38 41 43 47 45 33 27 16 7 8 12 13 13 16 16 19 19 21 22 25 23 25 24 28 28 28 28 29 27 29 35 34 33 34 36 38 40 44 45 47 49 51
32 34 37 39 40 40 47 38 20 22 12 10 10 11 14 13 14 15 17 16 18 29 28 28 30 32 34 35 32 34 37 34 34 35 36 39 39 40 42 45 49 50 54 58
33 33 36 37 37 37 43 33 19 19 17 12 10 11 13 10 15 16 16 16 17 21 24 29 32 35 35 37 35 31 29 27 30 33 38 40 44 42 44 45 47 49 52 54
34 33 35 35 33 34 38 32 21 17 20 16 15 14 17 16 15 21 21 19 20 17 18 22 25 25 27 28 27 28 30 31 34 35 37 37 39 41 42 43 46 47 46 46
35 34 34 32 31 31 33 33 26 16 18 22 22 17 18 20 19 19 21 23 25 23 21 22 22 23 25 29 33 33 34 33 35 35 36 38 38 40 44 42 42 37 39 42
36 36 33 30 30 29 29 31 25 20 17 19 26 25 19 22 23 22 21 20 24 24 22 22 24 25 27 30 31 33 35 36 36 39 39 38 38 38 39 39 38 42 45 48
39 38 33 30 28 26 27 30 29 24 20 20 25 28 22 24 26 26 25 25 25 24 25 28 30 30 32 32 32 34 36 38 39 39 39 41 41 39 37 42 46 46 46 51
41 40 34 30 28 26 26 31 30 26 23 24 25 28 27 25 25 27 28 26 26 26 26 26 26 29 31 32 33 35 38 40 42 38 39 42 41 41 42 45 44 46 50 55
42 41 35 32 28 25 25 29 28 28 28 21 27 32 30 26 27 29 31 31 31 31 31 28 29 30 33 36 38 38 40 38 38 40 41 42 42 41 42 44 48 51 56 60
46 42 37 34 30 25 24 26 31 28 27 25 24 34 31 28 32 36 35 35 35 34 33 33 34 35 37 39 39 39 39 41 41 42 43 44 44 43 45 49 53 57 61 66
49 43 39 35 31 25 25 28 32 27 27 27 26 31 33 32 32 37 39 38 37 39 40 40 40 39 40 41 42 43 42 44 45 44 45 46 46 48 51 54 59 63 67 70
48 44 41 35 31 27 26 33 32 28 25 24 28 26 35 36 35 34 37 42 43 44 45 47 44 41 41 44 45 44 44 42 43 45 46 48 49 52 55 58 63 67 71 74
47 44 40 35 33 30 31 35 33 27 26 27 27 28 27 30 37 40 42 43 44 45 46 46 45 41 41 42 44 44 44 44 46 49 51 53 56 58 61 64 68 71 74 76
47 43 41 37 36 31 33 35 36 29 27 31 27 30 26 27 29 33 35 34 35 37 37 37 38 41 41 41 44 46 47 47 48 51 53 55 58 61 63 67 70 72 76 79
47 44 40 38 38 30 37 33 37 28 29 30 29 25 24 28 29 27 28 28 31 33 33 36 39 41 43 45 46 48 49 49 49 50 51 52 55 60 64 68 71 75 79 83
47 44 41 40 38 34 36 36 36 31 32 29 27 31 29 27 29 31 31 32 33 35 38 38 37 37 41 43 44 45 46 47 49 51 53 56 60 64 67 71 75 79 82 85
48 47 44 43 38 32 44 40 37 33 35 31 30 30 31 29 29 33 36 36 36 37 37 38 38 40 40 41 43 45 48 50 52 55 58 61 64 67 71 73 77 79 82 85
48 48 45 45 39 36 44 38 44 36 40 36 35 34 35 33 29 33 35 38 40 41 40 40 40 41 43 45 46 48 50 52 55 57 60 63 66 69 72 75 77 79 79 81
52 51 50 47 41 36 47 42 41 40 36 40 38 39 39 37 35 34 38 39 40 42 42 42 42 43 43 45 48 50 52 55 57 60 62 65 68 71 73 74 76 79 82 86
55 54 52 47 42 43 43 44 41 40 44 41 40 45 44 38 38 37 37 39 42 43 43 43 43 44 44 46 48 50 53 56 60 60 63 67 70 73 75 78 81 85 89 93
59 57 50 49 45 48 47 47 45 46 42 42 45 46 46 46 44 38 37 39 43 46 47 46 45 46 47 48 49 53 57 60 63 67 71 76 79 83 86 88 89 92 95 98
59 55 50 49 49 52 52 50 49 45 43 44 45 48 50 50 52 44 41 41 42 44 46 47 49 51 52 53 57 61 66 70 73 76 78 81 83 86 88 90 92 95 98 101
56 53 52 52 55 57 53 52 48 46 47 47 48 51 53 54 54 51 48 47 46 45 47 48 52 57 58 60 62 63 65 72 75 78 81 83 84 86 88 91 94 99 100 100
Wind_Direction
308 315 324 330 341 344 351 329 303 285 239 206 304 284 213 195 202 196 188 168 176 208 201 192 202 221 242 240 232 230 233 231 226 230 233 236 241 249 250 255 263 268 270 268
304 313 322 328 338 340 350 336 300 277 240 220 262 274 231 205 212 208 189 174 181 193 201 200 223 220 227 232 235 241 243 244 238 233 233 235 240 245 251 255 258 263 267 268
301 312 319 324 332 336 349 339 330 279 243 221 250 250 238 205 210 211 207 193 192 195 204 218 231 231 240 240 241 242 246 254 255 252 252 249 251 257 264 266 266 267 271 272
299 308 314 319 328 336 346 342 333 279 257 246 242 259 224 222 220 222 226 226 213 212 222 226 231 233 236 241 247 253 252 254 251 261 263 267 265 265 268 267 266 269 268 272
295 302 310 318 329 336 345 344 331 304 248 260 259 247 213 207 202 220 226 227 228 226 224 232 239 235 235 239 260 247 263 265 262 261 261 258 260 262 266 268 268 272 277 278
288 296 306 316 326 334 343 345 322 318 261 252 249 215 223 226 220 215 225 232 237 243 243 243 246 251 257 258 263 263 261 257 255 253 253 256 262 266 268 271 275 279 280 279
283 290 299 313 322 334 341 343 328 303 290 245 242 228 228 233 237 229 234 241 244 247 237 236 243 247 249 253 253 254 253 253 256 257 258 263 270 272 272 274 276 274 274 279
278 283 294 307 317 329 340 348 341 299 298 259 245 237 233 241 244 235 241 246 245 242 239 237 238 242 249 254 255 257 258 259 264 269 272 271 269 269 270 274 271 274 277 279
272 278 290 302 311 325 336 343 337 319 283 290 259 242 234 239 246 245 248 255 253 243 237 239 245 245 246 249 253 258 262 266 271 271 272 273 266 263 267 272 278 276 277 280
267 275 285 295 304 317 326 334 344 339 287 275 272 254 238 236 237 245 251 262 265 261 256 256 256 257 256 258 265 269 269 268 272 273 263 262 260 258 260 264 266 272 279 281
264 270 279 288 296 307 317 327 338 343 321 266 265 263 254 249 241 243 251 258 261 265 266 264 265 267 267 269 272 273 277 278 279 273 264 260 259 258 259 263 268 273 277 279
259 267 273 282 287 300 314 326 331 339 337 284 265 262 265 261 247 244 248 253 258 263 268 269 272 277 279 278 275 276 280 276 271 269 268 264 262 261 263 268 271 275 277 278
254 262 271 274 282 293 305 317 323 337 335 318 282 264 270 265 253 247 249 250 253 257 260 267 275 279 282 281 279 281 277 273 269 268 267 265 264 263 264 268 274 277 277 279
252 260 264 268 279 284 299 307 318 334 329 321 297 282 272 267 262 254 254 256 259 258 263 271 277 279 281 278 278 276 275 273 271 271 270 269 266 266 269 272 274 275 276 280
251 256 261 267 274 280 290 301 312 329 333 320 312 298 274 265 261 263 259 258 260 263 266 271 273 275 275 277 278 276 276 271 272 274 272 269 267 269 271 274 275 278 281 283
249 252 259 264 271 279 285 297 306 322 329 323 314 288 288 275 263 260 259 261 263 267 270 272 274 274 272 272 273 271 274 271 276 278 276 272 270 272 274 276 278 281 284 289
245 250 253 259 270 280 280 297 298 316 321 327 320 317 297 281 276 272 271 265 263 265 269 272 275 276 277 277 278 277 276 275 276 279 277 273 271 273 276 278 281 285 290 294
242 245 250 257 267 278 280 289 296 309 315 326 332 320 298 276 272 271 267 267 269 268 265 266 269 276 281 282 282 282 284 284 283 283 281 278 276 277 280 284 289 292 294 294
238 243 249 256 261 272 278 277 295 298 305 323 316 324 311 291 272 267 267 267 266 266 270 275 281 285 283 282 284 286 286 287 286 285 284 284 285 287 289 291 292 293 293 296
238 241 246 252 260 266 264 283 289 296 289 319 316 316 310 301 284 275 271 270 272 276 277 277 277 280 284 285 285 285 286 286 287 287 287 288 290 290 291 291 291 296 297 297
237 241 244 248 259 261 265 275 284 293 287 305 309 311 313 303 292 282 276 275 274 276 277 279 282 285 285 286 287 287 287 288 289 290 291 291 291 291 293 295 295 296 296 297
236 239 244 251 260 260 255 275 281 283 291 301 301 306 304 306 301 294 286 278 275 274 275 279 282 284 285 286 287 290 292 292 292 292 293 294 295 294 294 295 295 296 298 300
236 241 246 251 253 254 262 265 277 282 294 297 293 304 302 298 296 297 294 286 281 278 277 278 280 282 285 288 289 291 292 293 293 292 295 296 296 296 297 297 297 298 299 300
234 241 244 248 250 251 258 266 273 284 291 286 291 296 290 291 297 296 298 294 287 284 283 281 282 282 283 285 288 291 292 293 294 294 294 294 296 298 299 299 298 298 298 298
238 243 246 248 250 255 258 265 278 283 282 279 283 283 281 284 292 294 299 293 297 298 293 290 290 295 295 293 292 293 295 298 298 298 298 299 300 299 299 299 298 297 297 298
236 239 244 240 244 252 261 269 274 276 275 280 282 280 277 280 285 288 291 295 293 294 295 296 300 300 297 298 301 301 300 303 305 304 302 300 300 301 300 299 298 298 299 300
Height
10648 10645 10640 10634 10626 10618 10609 10604 10600 10598 10597 10596 10596 10596 10595 10596 10597 10600 10604 10606 10612 10614 10617 10620 10624 10626 10629 10631 10633 10635 10638 10642 10644 10646 10649 10652 10653 10654 10655 10656 10655 10653 10653 10654
10643 10640 10635 10630 10624 10616 10608 10602 10598 10596 10594 10594 10595 10595 10594 10595 10596 10597 10599 10603 10608 10612 10618 10621 10622 10624 10626 10627 10628 10629 10632 10634 10637 10639 10642 10643 10645 10645 10646 10648 10646 10644 10641 10641
10638 10635 10631 10627 10621 10614 10606 10599 10595 10592 10591 10590 10593 10593 10594 10594 10595 10596 10599 10603 10606 10610 10613 10616 10618 10619 10621 10623 10625 10626 10627 10629 10630 10632 10633 10635 10635 10635 10636 10635 10635 10633 10628 10627
10634 10630 10626 10623 10618 10610 10603 10597 10593 10590 10589 10588 10589 10590 10590 10592 10593 10595 10598 10600 10603 10604 10607 10610 10613 10615 10617 10618 10620 10621 10622 10623 10624 10624 10624 10625 10627 10626 10626 10625 10625 10622 10618 10616
10629 10626 10623 10619 10613 10607 10601 10594 10590 10588 10586 10586 10586 10587 10588 10590 10591 10593 10594 10596 10598 10601 10602 10605 10606 10607 10610 10611 10612 10613 10614 10615 10615 10616 10616 10616 10616 10616 10615 10615 10612 10610 10606 10603
10622 10620 10617 10614 10609 10604 10598 10592 10587 10585 10583 10583 10583 10584 10586 10587 10589 10591 10591 10593 10594 10596 10598 10599 10601 10602 10602 10603 10604 10605 10606 10608 10608 10609 10609 10608 10606 10606 10604 10602 10601 10598 10595 10591
10615 10614 10612 10609 10605 10600 10595 10590 10584 10582 10580 10580 10579 10580 10582 10584 10585 10587 10588 10588 10589 10590 10591 10593 10595 10595 10596 10597 10598 10598 10599 10600 10599 10600 10598 10597 10596 10594 10593 10592 10591 10588 10585 10580
10607 10607 10606 10604 10601 10597 10593 10587 10582 10578 10577 10576 10575 10576 10578 10579 10580 10582 10583 10584 10585 10586 10586 10588 10589 10591 10591 10591 10591 10591 10591 10591 10589 10589 10588 10586 10584 10582 10580 10578 10578 10576 10574 10575
10599 10599 10599 10598 10596 10593 10590 10584 10579 10575 10573 10572 10571 10571 10572 10573 10574 10576 10578 10579 10580 10582 10583 10584 10585 10585 10585 10585 10584 10584 10583 10582 10581 10578 10577 10575 10573 10571 10569 10568 10567 10566 10562 10558
10591 10592 10592 10592 10590 10588 10584 10582 10576 10571 10567 10566 10566 10565 10568 10567 10568 10569 10571 10572 10573 10574 10575 10576 10577 10577 10577 10577 10577 10576 10574 10571 10571 10568 10566 10564 10563 10562 10561 10559 10557 10553 10548 10544
10582 10583 10585 10585 10584 10582 10580 10576 10571 10567 10562 10560 10559 10559 10562 10562 10564 10564 10564 10564 10565 10565 10566 10567 10568 10568 10568 10568 10567 10565 10563 10560 10558 10556 10555 10553 10553 10552 10550 10548 10544 10540 10536 10531
10572 10575 10577 10577 10577 10576 10573 10571 10567 10561 10558 10555 10554 10551 10553 10557 10558 10557 10556 10556 10557 10557 10558 10559 10559 10559 10559 10558 10556 10555 10552 10550 10548 10546 10543 10542 10541 10540 10539 10537 10533 10529 10524 10518
10561 10566 10569 10569 10569 10569 10567 10565 10563 10558 10553 10549 10548 10544 10547 10550 10550 10549 10549 10549 10548 10549 10549 10550 10550 10549 10548 10547 10546 10543 10541 10538 10537 10536 10535 10534 10532 10529 10527 10523 10520 10516 10510 10503
10552 10557 10559 10560 10562 10561 10559 10558 10557 10553 10548 10543 10540 10538 10539 10540 10541 10541 10542 10543 10542 10542 10540 10540 10540 10540 10538 10536 10535 10532 10530 10528 10526 10526 10524 10522 10520 10518 10515 10511 10506 10500 10495 10489
10543 10547 10548 10551 10553 10553 10552 10551 10551 10548 10544 10539 10534 10532 10527 10531 10533 10534 10534 10534 10534 10533 10532 10531 10531 10529 10528 10526 10524 10522 10520 10517 10516 10514 10512 10510 10507 10504 10501 10497 10491 10486 10479 10474
10533 10536 10538 10541 10543 10544 10543 10543 10544 10542 10538 10534 10530 10524 10522 10522 10523 10523 10524 10524 10524 10523 10522 10520 10519 10519 10518 10517 10514 10512 10510 10508 10505 10503 10500 10498 10494 10491 10487 10482 10477 10471 10464 10458
10522 10526 10528 10531 10533 10535 10531 10536 10535 10534 10531 10528 10524 10519 10515 10515 10515 10515 10514 10514 10514 10512 10510 10508 10506 10505 10505 10504 10503 10502 10500 10497 10495 10492 10488 10485 10482 10478 10474 10468 10463 10457 10449 10441
10511 10514 10518 10522 10524 10528 10520 10525 10526 10524 10523 10521 10517 10513 10509 10507 10507 10506 10505 10504 10504 10503 10501 10499 10497 10496 10494 10492 10490 10489 10486 10484 10481 10478 10475 10472 10469 10464 10460 10454 10448 10440 10432 10422
10499 10504 10509 10513 10515 10517 10511 10514 10518 10516 10513 10514 10511 10507 10502 10499 10499 10497 10497 10496 10495 10494 10493 10492 10490 10488 10485 10482 10480 10477 10474 10471 10468 10465 10462 10458 10454 10449 10444 10438 10430 10422 10414 10405
10488 10492 10499 10503 10507 10507 10494 10505 10507 10508 10501 10506 10504 10501 10496 10493 10490 10489 10488 10486 10485 10484 10483 10482 10480 10478 10475 10472 10469 10466 10463 10460 10457 10453 10449 10445 10440 10434 10428 10421 10414 10405 10395 10386
10478 10482 10488 10490 10496 10497 10487 10493 10495 10499 10489 10495 10493 10491 10489 10486 10483 10480 10478 10476 10475 10473 10471 10469 10467 10465 10463 10460 10458 10455 10452 10449 10445 10440 10435 10430 10424 10417 10410 10402 10394 10385 10375 10365
10465 10470 10475 10480 10486 10489 10475 10484 10486 10484 10485 10483 10481 10480 10478 10476 10473 10470 10468 10466 10464 10462 10460 10458 10456 10454 10452 10449 10446 10442 10438 10434 10430 10425 10419 10412 10406 10399 10391 10382 10373 10364 10353 10341
10455 10461 10464 10469 10474 10471 10472 10472 10474 10474 10475 10472 10470 10468 10466 10466 10464 10461 10458 10456 10453 10451 10448 10446 10444 10441 10438 10435 10432 10428 10424 10419 10413 10407 10401 10394 10387 10378 10370 10360 10350 10340 10330 10319
10442 10446 10454 10456 10461 10460 10460 10460 10463 10465 10465 10462 10460 10457 10456 10454 10453 10451 10448 10445 10443 10440 10438 10435 10431 10428 10424 10421 10416 10411 10407 10401 10395 10389 10382 10374 10365 10356 10347 10337 10326 10316 10304 10294
10432 10437 10445 10448 10450 10447 10447 10449 10452 10454 10453 10450 10450 10448 10445 10442 10439 10438 10436 10433 10430 10427 10424 10421 10418 10414 10410 10406 10401 10396 10391 10384 10378 10370 10361 10351 10341 10332 10322 10313 10302 10291 10280 10268
10425 10428 10429 10435 10431 10430 10436 10438 10441 10441 10439 10438 10437 10435 10432 10429 10427 10425 10423 10420 10416 10413 10409 10406 10403 10400 10395 10390 10385 10379 10372 10366 10357 10348 10338 10328 10318 10308 10298 10287 10279 10263 10251 10241